TimeMDT,TemperatureF,Dew PointF,Humidity,Sea Level PressureIn,VisibilityMPH,Wind Direction,Wind SpeedMPH,Gust SpeedMPH,PrecipitationIn,Events,Conditions,WindDirDegrees,DateUTC
12:56 AM,41.0,32.9,73,29.87,10.0,NE,8.1,-,N/A,,Clear,50,2013-05-06 06:56:00
1:56 AM,41.9,32.0,68,29.87,10.0,NE,9.2,-,N/A,,Clear,50,2013-05-06 07:56:00
2:56 AM,39.9,30.0,68,29.86,10.0,NNE,4.6,-,N/A,,Clear,20,2013-05-06 08:56:00
3:56 AM,32.9,27.1,79,29.91,10.0,Calm,Calm,-,N/A,,Clear,0,2013-05-06 09:56:00
4:56 AM,32.9,28.0,82,29.92,10.0,Calm,Calm,-,N/A,,Clear,0,2013-05-06 10:56:00
5:56 AM,31.1,27.1,85,29.94,10.0,East,4.6,-,N/A,,Clear,90,2013-05-06 11:56:00
6:56 AM,34.9,29.1,79,29.94,10.0,ESE,4.6,-,N/A,,Clear,120,2013-05-06 12:56:00
7:56 AM,45.0,32.9,63,29.89,10.0,Calm,Calm,-,N/A,,Clear,0,2013-05-06 13:56:00
8:56 AM,50.9,32.9,50,29.87,10.0,Calm,Calm,-,N/A,,Clear,0,2013-05-06 14:56:00
9:56 AM,55.9,32.0,40,29.87,10.0,NNW,5.8,-,N/A,,Clear,330,2013-05-06 15:56:00
10:56 AM,59.9,28.0,30,29.83,10.0,West,5.8,-,N/A,,Clear,270,2013-05-06 16:56:00
11:56 AM,63.9,29.1,27,29.81,10.0,West,8.1,-,N/A,,Clear,260,2013-05-06 17:56:00
12:56 PM,63.0,27.1,26,29.83,10.0,Variable,4.6,-,N/A,,Partly Cloudy,0,2013-05-06 18:56:00
1:56 PM,61.0,28.0,29,29.82,10.0,SW,5.8,-,N/A,,Mostly Cloudy,220,2013-05-06 19:56:00
2:56 PM,63.0,29.1,28,29.80,10.0,West,5.8,-,N/A,,Clear,260,2013-05-06 20:56:00
3:56 PM,64.9,27.1,24,29.81,10.0,NNE,6.9,-,N/A,,Scattered Clouds,20,2013-05-06 21:56:00
4:56 PM,68.0,18.1,15,29.77,10.0,East,10.4,-,N/A,,Partly Cloudy,100,2013-05-06 22:56:00
5:56 PM,63.9,27.1,25,29.80,10.0,East,8.1,-,N/A,,Clear,80,2013-05-06 23:56:00
6:37 PM,60.8,30.2,31,29.95,10.0,South,15.0,-,N/A,,Mostly Cloudy,180,2013-05-07 00:37:00
6:56 PM,59.0,31.1,35,29.82,10.0,South,11.5,-,N/A,,Scattered Clouds,180,2013-05-07 00:56:00
7:56 PM,59.0,31.1,35,29.79,10.0,ESE,10.4,-,N/A,,Clear,110,2013-05-07 01:56:00
8:56 PM,52.9,32.0,45,29.80,10.0,SSW,8.1,-,N/A,,Clear,210,2013-05-07 02:56:00
10:56 PM,45.0,32.0,60,29.81,10.0,NE,10.4,-,N/A,,Clear,40,2013-05-07 04:56:00